Weather in Vereeniging

South Africa     26°40′38″S   27°55′58″E
temp.,
°C
wind,
m/s
gust,
m/s
humid.,
%
clouds,
%
prec.,
mm/h
press.,
hPa
HPBL,
m
26 february, fri
fri2623:00+17nnw337930 0.0 101333
02:00+15nnw238415 0.0 101332
05:00+13w00870 0.0 101331
08:00+17ese34770 0.0 1015253
11:00+23wnw234773 1.8 10131347
14:00+26wsw343770 1.8 10102169
17:00+21w355781 0.2 1009175
20:00+16ne337277 1.3 101230
27 february, sat
sat2723:00+14ene47887 0.0 1015193
02:00+14e6129047 0.0 1015409
05:00+13ene4109281 0.1 1016322
08:00+16ne578242 0.1 1017505
11:00+20ne556676 0.0 1016864
14:00+23nne114956 0.3 10131572
17:00+24ese134263 0.1 10121971
20:00+19ene236059 0.1 101536
28 february, sun
sun2823:00+17ene366665 0.0 1017142
02:00+13ene499336 0.1 1017227
05:00+12ene46950 0.0 1019130
08:00+16ene45760 0.0 1019412
11:00+21nne015931 0.0 10171097
14:00+25s254254 0.2 10142085
17:00+26sse353667 0.0 10132373
20:00+19ne445358 0.0 101671
1 march, mon
mon123:00+15e510633 0.0 1019199
02:00+12ene47862 0.0 1020145
05:00+11e46940 0.0 1021139
08:00+13e348110 0.0 1021338
11:00+21ene24365 0.0 10191162
14:00+25nne35242 0.0 10162178
17:00+24n55340 0.0 10141078
20:00+17ne45450 0.0 101643
2 march, tue
tue223:00+14e22540 0.0 101926
02:00+12ene22630 0.0 101926
05:00+11ne23660 0.0 102027
08:00+17n23620 0.0 1020282
11:00+23w22370 0.0 10171362
14:00+26w22280 0.0 10142284
17:00+27ssw23260 0.0 10122460
20:00+17ssw12460 0.0 101427